Location: Vihti�l�
(61.3833°N, 23.0667°E)
Time: 05:30:03
(UTC+00:00)

Meteor 2-6 Rocket - Pass Details

Date: 29 November 2020
Orbit: 806 x 914 km, 81.3° (Epoch: 22 January)

Event Time Altitude Azimuth Distance (km) Brightness Sun altitude
Exits shadow 04:30:19 17° 329° (NNW) 1,958 5.7 -17.1°
Maximum altitude 04:34:07 42° 266° (W) 1,138 4.4 -16.7°
Drops below altitude 10° 04:39:10 10° 197° (SSW) 2,401 6.6 -16.1°
Sets 04:41:39 0° 191° (S) 3,337 7.4 -15.8°
